Date String (YYYY-MM-DD hh:mm:ss) UTC,Instrument flags,Ambient pressure (hPa),Sample flow (lpm),Bypass flow (lpm),Sample temperature (°C),Ambient temperature (°C),ASC tube jacket temperature (°C),LED temperature (°C),Box temperature (°C),Sample RH (%),Span deviation,Mass concentration (μg/m³),Mass concentration (μg/m³),Mass concentration (μg/m³)
DateTimeUTC,F1_M11,P_M11,Q1_M11,Q2_M11,T1_M11,T2_M11,T3_M11,T4_M11,T5_M11,U1_M11,ZSPAN_M11,X0_M11,X2_M11,X1_M11
2021-08-27 18:00:00,,0826.0,5.01,0.00,28.9,25.7,00.0,38.0,30.3,25.5,0001.4,0018.40,0004.70,0003.69
2021-08-27 18:01:00,,0826.0,4.99,0.00,28.8,26.2,00.0,38.0,30.4,26.2,0001.2,0019.17,0004.75,0003.70
2021-08-27 18:02:00,,0826.0,5.01,0.00,28.8,26.6,00.0,38.0,30.5,26.5,0000.6,0020.11,0004.77,0003.69
2021-08-27 18:03:00,,0826.0,4.99,0.00,28.9,27.0,00.0,38.0,30.6,26.0,0000.5,0021.02,0004.73,0003.69
2021-08-27 18:04:00,,0826.0,5.01,0.00,28.9,27.4,00.0,38.0,30.8,26.5,0000.7,0020.82,0004.74,0003.70
2021-08-27 18:05:00,,0826.0,4.99,0.00,29.0,27.7,00.0,38.0,30.9,26.0,0000.5,0021.45,0004.74,0003.71
2021-08-27 18:06:00,,0826.0,5.00,0.00,29.0,28.0,00.0,38.0,31.0,25.8,0000.8,0022.15,0004.77,0003.72
2021-08-27 18:07:00,,0826.0,5.00,0.00,29.1,27.7,00.0,38.0,30.9,25.8,0001.2,0021.68,0004.83,0003.73
2021-08-27 18:08:00,,0825.9,5.00,0.00,29.0,26.3,00.0,38.0,30.5,26.6,0001.1,0019.84,0004.86,0003.74
2021-08-27 18:09:00,,0825.9,4.99,0.00,28.9,25.8,00.0,38.0,30.4,26.9,0001.1,0019.66,0004.87,0003.75
2021-08-27 18:10:00,,0825.9,5.00,0.00,28.9,26.2,00.0,38.0,30.5,27.0,0001.3,0020.83,0004.89,0003.75
2021-08-27 18:11:00,,0825.9,5.01,0.00,28.8,26.6,00.0,38.0,30.5,27.2,0001.5,0021.67,0004.93,0003.75
2021-08-27 18:12:00,,0826.0,4.99,0.00,28.9,27.0,00.0,37.9,30.6,25.7,0002.0,0020.48,0004.97,0003.77
2021-08-27 18:13:00,,0825.9,5.01,0.00,28.9,27.4,00.0,37.9,30.7,25.2,0002.3,0021.15,0004.99,0003.79
2021-08-27 18:14:00,,0825.9,5.00,0.00,29.0,27.8,00.0,38.0,30.8,25.5,0002.5,0020.45,0005.03,0003.80
2021-08-27 18:15:00,,0825.9,4.99,0.00,29.0,28.0,00.0,38.0,30.9,25.4,0002.2,0019.85,0005.05,0003.80
2021-08-27 18:16:00,,0825.9,5.01,0.00,29.0,26.9,00.0,38.0,30.7,25.6,0002.3,0018.43,0005.08,0003.82
2021-08-27 18:17:00,,0825.8,4.99,0.00,28.9,25.6,00.0,38.0,30.3,26.2,0002.3,0018.55,0005.12,0003.83
2021-08-27 18:18:00,,0825.8,4.99,0.00,28.8,25.8,00.0,37.9,30.3,26.8,0002.5,0018.99,0005.12,0003.84
2021-08-27 18:19:00,,0825.8,5.00,0.00,28.8,26.2,00.0,37.9,30.4,26.6,0002.6,0019.45,0005.15,0003.85
2021-08-27 18:20:00,,0825.8,5.00,0.00,28.8,26.7,00.0,37.9,30.5,26.3,0002.6,0019.77,0005.18,0003.87
2021-08-27 18:21:00,,0825.9,5.00,0.00,28.8,27.1,00.0,37.9,30.6,24.9,0002.4,0018.65,0005.20,0003.90
2021-08-27 18:22:00,,0825.8,4.99,0.00,28.9,27.5,00.0,37.9,30.7,24.7,0002.7,0017.08,0005.18,0003.92
2021-08-27 18:23:00,,0826.4,5.00,0.00,28.9,27.8,00.0,37.9,30.8,24.7,0002.7,0016.47,0005.11,0003.93
2021-08-27 18:24:00,,0826.0,5.00,0.00,29.0,27.6,00.0,37.9,30.8,25.0,0002.8,0015.32,0005.09,0003.94
2021-08-27 18:25:00,,0825.8,5.00,0.00,28.9,26.2,00.0,37.9,30.4,25.4,0002.7,0014.62,0005.07,0003.95
2021-08-27 18:26:00,,0825.8,5.01,0.00,28.8,25.6,00.0,37.9,30.2,25.4,0002.8,0014.89,0005.06,0003.95
2021-08-27 18:27:00,,0825.7,5.00,0.00,28.8,26.0,00.0,37.9,30.3,25.2,0002.3,0015.55,0005.06,0003.96
2021-08-27 18:28:00,,0825.7,5.00,0.00,28.7,26.4,00.0,37.9,30.4,25.7,0002.3,0015.54,0005.08,0003.97
2021-08-27 18:29:00,,0825.7,4.99,0.00,28.8,26.9,00.0,37.8,30.6,25.9,0002.6,0015.61,0005.10,0003.98
2021-08-27 18:30:00,,0825.7,5.00,0.00,28.8,27.3,00.0,37.8,30.7,26.8,0002.9,0015.12,0005.14,0003.98
2021-08-27 18:31:00,,0825.7,5.01,0.00,28.9,27.6,00.0,37.9,30.8,26.9,0003.1,0014.56,0005.17,0003.97
2021-08-27 18:32:00,,0825.7,5.00,0.00,28.9,27.9,00.0,37.9,30.9,26.9,0003.1,0014.87,0005.16,0003.96
2021-08-27 18:33:00,,0825.7,5.00,0.00,29.0,28.1,00.0,37.9,31.0,26.7,0002.6,0015.68,0005.15,0003.95
2021-08-27 18:34:00,,0825.6,5.00,0.00,29.0,27.3,00.0,37.9,30.8,25.8,0002.5,0016.15,0005.18,0003.95
2021-08-27 18:35:00,,0825.7,5.00,0.00,28.9,25.9,00.0,37.9,30.3,26.4,0002.3,0016.28,0005.19,0003.94
2021-08-27 18:36:00,,0825.6,5.00,0.00,28.8,25.9,00.0,37.9,30.3,26.5,0002.7,0017.88,0005.25,0003.95
2021-08-27 18:37:00,,0825.6,5.00,0.00,28.8,26.3,00.0,37.9,30.4,26.3,0002.6,0018.69,0005.26,0003.96
2021-08-27 18:38:00,,0825.6,4.99,0.00,28.8,26.7,00.0,37.9,30.5,26.8,0002.7,0018.90,0005.34,0003.97
2021-08-27 18:39:00,,0825.5,5.01,0.00,28.8,27.2,00.0,37.9,30.7,26.6,0002.7,0018.80,0005.43,0003.98
2021-08-27 18:40:00,,0825.4,5.00,0.00,28.9,27.5,00.0,37.9,30.8,25.7,0002.5,0018.37,0005.41,0003.99
2021-08-27 18:41:00,,0825.5,5.00,0.00,29.0,27.8,00.0,37.9,30.9,25.8,0001.9,0019.37,0005.36,0004.00
2021-08-27 18:42:00,,0825.5,4.99,0.00,29.0,28.1,00.0,37.9,31.0,24.5,0001.7,0020.60,0005.40,0004.01
2021-08-27 18:43:00,,0825.4,5.01,0.00,29.0,27.4,00.0,37.9,30.8,24.3,0001.3,0020.37,0005.48,0004.03
2021-08-27 18:44:00,,0825.5,4.99,0.00,28.9,26.0,00.0,37.9,30.4,24.1,0001.3,0020.03,0005.58,0004.05
2021-08-27 18:45:00,,0825.4,5.00,0.00,28.8,25.9,00.0,37.9,30.3,24.2,0000.8,0019.87,0005.62,0004.07
2021-08-27 18:46:00,,0825.4,4.99,0.00,28.8,26.3,00.0,37.9,30.5,25.7,0000.4,0020.53,0005.68,0004.07
2021-08-27 18:47:00,,0825.4,4.99,0.00,28.8,26.7,00.0,37.9,30.6,25.5,0000.3,0019.75,0005.71,0004.07
2021-08-27 18:48:00,,0825.4,5.00,0.00,28.8,27.1,00.0,37.9,30.6,25.6,0000.3,0019.39,0005.75,0004.07
2021-08-27 18:49:00,,0825.4,5.01,0.00,28.9,27.5,00.0,37.9,30.8,26.1,0000.4,0019.24,0005.69,0004.07
2021-08-27 18:50:00,,0825.4,5.00,0.00,29.0,27.8,00.0,37.9,30.9,26.3,0000.4,0020.26,0005.55,0004.06
2021-08-27 18:51:00,,0825.4,5.00,0.00,29.0,27.9,00.0,37.9,30.9,25.8,0000.7,0020.41,0005.55,0004.05
2021-08-27 18:52:00,,0825.4,5.00,0.00,29.0,26.5,00.0,37.9,30.5,25.5,0000.8,0019.82,0005.56,0004.05
2021-08-27 18:53:00,,0825.4,4.99,0.00,28.8,25.6,00.0,37.9,30.2,25.4,0000.9,0018.78,0005.52,0004.05
2021-08-27 18:54:00,,0825.3,5.01,0.00,28.8,26.0,00.0,37.9,30.3,24.5,0001.3,0019.94,0005.50,0004.06
2021-08-27 18:55:00,,0825.4,5.00,0.00,28.8,26.4,00.0,37.9,30.4,23.4,0001.5,0020.35,0005.48,0004.06
2021-08-27 18:56:00,,0825.4,5.01,0.00,28.8,26.8,00.0,37.8,30.5,23.2,0002.1,0021.53,0005.43,0004.05
2021-08-27 18:57:00,,0825.4,4.99,0.00,28.8,27.3,00.0,37.9,30.7,22.0,0002.2,0020.93,0005.39,0004.07
2021-08-27 18:58:00,,0825.4,4.99,0.00,28.9,27.6,00.0,37.9,30.8,21.6,0001.9,0020.27,0005.30,0004.10
2021-08-27 18:59:00,,0825.4,5.01,0.00,28.9,27.9,00.0,37.9,30.9,22.1,0001.8,0019.39,0005.25,0004.11
